Orbital Elements at Epoch 2459200.5 (2020-Dec-17.0) TDB
Reference: JPL 26 (heliocentric ecliptic J2000)
Element | Value | Uncertainty (1-sigma) | Units |
e | .1917789394850645 | 4.0955e-08 | |
a | 2.376878989192898 | 6.9304e-09 | au |
q | 1.921043657361152 | 9.7135e-08 | au |
i | .664971755484112 | 4.4151e-06 | deg |
node | 325.9828325017374 | 0.00033124 | deg |
peri | 58.51635210985199 | 0.0003314 | deg |
M | 119.0728344931844 | 9.1293e-06 | deg |
tp | 2458757.790108488143 (2019-Oct-01.29010849) | 3.3911e-05 | TDB |
period | 1338.471210689042 3.66 | 5.8539e-06 1.603e-08 | d yr |
n | .268963573609232 | 1.1763e-09 | deg/d |
Q | 2.832714321024645 | 8.2594e-09 | au |
|
| | Orbit Determination Parameters
Additional Information
|